CST,Max TemperatureF,Mean TemperatureF,Min TemperatureF,Max Dew PointF,MeanDew PointF,Min DewpointF,Max Humidity, Mean Humidity, Min Humidity, Max Sea Level PressureIn, Mean Sea Level PressureIn, Min Sea Level PressureIn, Max VisibilityMiles, Mean VisibilityMiles, Min VisibilityMiles, Max Wind SpeedMPH, Mean Wind SpeedMPH, Max Gust SpeedMPH,PrecipitationIn, CloudCover, Events, WindDirDegrees
2012-2-1,71,64,57,68,62,55,100,93,78,30.15,30.08,30.05,10,5,0,8,4,,0.00,5,Fog,103
2012-2-2,73,65,57,68,63,55,100,91,69,30.10,30.00,29.87,10,5,0,16,6,23,0.01,7,Fog-Rain,111
2012-2-3,71,70,68,64,64,63,88,82,73,29.97,29.93,29.89,10,10,7,18,9,22,0.00,7,,130
2012-2-4,68,60,53,64,42,34,88,56,39,30.28,30.13,29.97,10,10,10,21,9,28,0.00,8,Thunderstorm,12
2012-2-5,53,50,46,37,34,32,66,55,47,30.40,30.31,30.25,10,10,10,16,7,18,0.00,8,Rain,6
2012-2-6,51,48,44,39,36,34,81,65,54,30.36,30.28,30.18,10,10,7,9,4,,0.03,8,Rain-Thunderstorm,82
2012-2-7,59,46,33,45,39,34,100,77,55,30.25,30.19,30.14,10,9,4,9,4,,0.00,3,,62
2012-2-8,59,52,46,46,39,36,82,62,45,30.47,30.36,30.28,10,10,10,14,5,16,0.00,5,,61
2012-2-9,57,47,37,43,40,36,100,77,55,30.32,30.23,30.11,10,8,4,10,7,,0.00,5,,110
2012-2-10,64,57,50,52,47,36,100,79,34,30.23,30.15,30.05,10,8,2,15,6,20,0.01,6,Rain-Thunderstorm,9
2012-2-11,53,44,35,37,32,25,87,59,35,30.44,30.36,30.26,10,10,10,17,9,22,0.00,0,,77
2012-2-12,41,36,32,36,25,18,93,66,45,30.47,30.39,30.22,10,9,2,17,12,24,0.00,8,Rain,89
2012-2-13,60,48,37,50,43,36,100,89,63,30.14,30.00,29.87,10,7,2,10,3,,0.15,6,Rain,309
2012-2-14,71,54,37,59,48,37,100,85,64,29.96,29.90,29.82,10,9,4,15,4,20,0.00,0,,98
2012-2-15,77,68,60,64,57,41,100,77,29,29.98,29.92,29.88,10,5,0,15,6,20,0.00,5,Fog-Rain,359
2012-2-16,68,60,51,48,38,34,67,47,30,30.17,30.09,30.03,10,10,7,17,8,21,0.05,4,Rain,64
2012-2-17,57,54,51,55,52,46,100,94,67,30.05,29.99,29.89,10,5,1,14,9,17,0.13,8,Rain,61
2012-2-18,62,58,51,54,50,45,100,80,52,30.05,29.91,29.81,10,10,7,25,10,34,0.09,6,Rain-Thunderstorm,317
2012-2-19,60,48,37,46,43,37,100,77,55,30.17,30.08,29.99,10,10,10,10,4,17,0.00,0,,134
2012-2-20,66,55,44,55,49,43,100,88,68,30.11,30.03,29.98,10,8,1,12,7,,0.00,5,,105
2012-2-21,73,62,51,61,55,48,100,77,41,30.17,30.08,29.98,10,8,1,14,6,18,0.00,3,,90
2012-2-22,80,66,53,63,53,30,100,72,16,30.00,29.92,29.77,10,8,1,10,4,,0.00,4,,248
2012-2-23,87,70,53,55,46,32,88,49,14,29.74,29.67,29.60,10,10,10,8,2,,0.00,0,,226
2012-2-24,68,59,50,52,26,18,64,31,18,30.32,30.11,29.70,10,10,10,23,13,34,0.00,0,,32
2012-2-25,57,47,37,37,31,27,81,52,31,30.45,30.35,30.23,10,10,10,13,4,18,0.00,0,,146
2012-2-26,68,50,33,52,44,32,100,73,52,30.23,30.11,30.01,10,10,10,17,8,21,0.00,4,,118
2012-2-27,68,62,57,64,59,52,100,92,77,30.18,30.12,30.09,10,6,2,13,7,17,0.10,8,Rain,105
2012-2-28,77,68,60,68,63,61,100,88,65,30.10,30.00,29.89,10,6,0,17,9,21,0.00,5,Fog-Rain,132
2012-2-29,80,72,64,66,58,41,94,68,24,30.05,29.97,29.91,10,7,3,14,7,17,0.03,2,,57